Location: Krasnoyarskiy
(51.1133°N, 71.6497°E)
Time: 08:08:54
(UTC+00:00)

N. Korean satellite - Visible Passes

Search period start: 26 March 2023 00:00
Search period end: 05 April 2023 00:00
Orbit: 392 x 417 km, 97.3° (Epoch: 25 March)

Date Brightness Start Highest point End Pass type
(mag) Time Alt. Az. Time Alt. Az. Time Alt. Az.
26 Mar 7.9 00:28:18 10° NNE 00:31:18 39° E 00:34:14 10° S visible
26 Mar 9.9 23:41:20 10° ENE 23:42:09 11° E 23:42:58 10° ESE visible
28 Mar 8.3 00:22:29 10° NNE 00:25:22 32° E 00:28:12 10° SSE visible
30 Mar 8.7 00:16:10 10° NE 00:18:54 27° E 00:21:35 10° SSE visible
01 Apr 9.1 00:09:20 10° NE 00:11:52 22° E 00:14:22 10° SSE visible
03 Apr 9.3 00:02:02 10° NE 00:04:16 18° E 00:06:29 10° SE visible
04 Apr 9.4 23:54:17 10° NE 23:56:06 15° E 23:57:56 10° SE visible
